COSMOS 1691 DEB, 18282

Orbit data source: Space-Track

COSMOS 1691 DEB, 18282 is space debris in LEO originally from a launch on Wed, 09 Oct 1985 UTC launched from the Plesetsk Missile And Space Complex (PKMTR). Debris objects in space refer to the collection of defunct objects orbiting the Earth. Examples of debris include non-operational satellites, rocket bodies, and fragments generated from explosions, collisions, or faulty payload assembly.

Loading next visibility...
Identifier
18282, 1985-094T
Orbit
LEO
Country
Flag of CISCIS
Related business
Manufacturer
Unknown
Mission
Spacecraft
Bus & Motor
Unknown
Mass
Unknown
Launch date (UTC)
1985-10-09 (40 years ago)
Launch vehicle
Unknown
Launch site
Plesetsk Missile And Space Complex (PKMTR)
Object type
Payload
Rocket body
Debris
Shape & HBR
Unknown shape, 0.1 m
Radar Cross Section
Small (<0.1 m²)

Expand to show TLE details & history
Last TLE update: 1 day ago

TLE from 1 day ago
0 COSMOS 1691 DEB
1 18282U 85094T   26036.36324168  .00000798  00000-0  35282-2 0  9993
2 18282  82.6209 258.5346 0006374  29.5869  92.0487 12.78586586869270
Epoch: 2026-02-05T08:43Z
TLE epoch observation values (Epoch: 2026-02-05T08:43:04.081Z)
Latitude
57.62263°
Longitude
160.52501°
Altitude
1,356.982 km
Speed
7.185 km/s
True Right ascension
04h 27m 14s
True Declination
57° 28' 44"
Sunlit
Object was in daylight at epoch
Visualization orbit readout
Latitude
Unknown
Longitude
Unknown
Altitude
Unknown
Speed
Unknown
Apparent Right ascension
Unknown
Apparent Declination
Unknown
Sunlit
N/A
Visualization observer readout
Local Sidereal Time
15:28:36
Azimuth
Unknown
Elevation
Unknown
Doppler factor
Unknown
Orbital elements
Apogee altitude
1,349.377 km
Perigee altitude
1,339.532 km
Semi-major axis
7,722.591 km
Eccentricity
0.00064
Inclination
82.6209°
RAAN
258.5346°
Arg. of periapsis
29.5869°
True anomaly
92.12169°
Mean anomaly
92.0487°
Eccentric anomaly
92.0852°
Mean motion
3.19815 °/min
Orbital period
112.57 mins
BSTAR
0.0035282
Loading maneuver chart data...
Computing Atmospheric mass density...
Loading historical data...
Loading historical data...
Loading historical data...
Loading historical data...
Loading historical data...
Loading historical data...
Loading historical data...

Documentation

Showing up to 5 results
|